Spokane Fairchild, WA
on Saturday, February 16, 2013

Saturday
Previous Day Next Day
Daily Summary
 ActualAverage (KGEG)Record (KGEG)
Temperature
Mean Temperature °F 33°F  
Max Temperature 42°F 40°F 56°F (1888)
Min Temperature 26°F 26°F -7°F (1956)
Degree Days
Heating Degree Days 31 32  
Month to date heating degree days 526  
Since 1 July heating degree days 4459  
Cooling Degree Days 0 0  
Month to date cooling degree days 0  
Year to date cooling degree days 0  
Moisture
Dew Point 33°F   
Average Humidity 87    
Maximum Humidity 100    
Minimum Humidity 76    
Precipitation
Precipitation 0.00 in 0.05 in 0.60 in (1970)
Month to date precipitation 0.75  
Year to date precipitation 2.54  
Snow
Snow 0.00 in 0.20 in 6.20 in (1959)
Month to date snowfall 4.2  
Since 1 July snowfall 37.7  
Snow Depth in   
Wind
Wind Speed 9 mph   
Max Wind Speed 16 mph   
Max Gust Speed mph   
Visibility 10 miles   
Events Rain   

Key: T is trace of precipitation, MM is missing value
Source: NWS Daily Summary
Time(PST)TemperatureDew PointHumidity Pressure Visibility Wind DirectionWind SpeedGust SpeedPrecipitationEvents Conditions
12:03 AM 32.0°F 30.2°F 93% 30.23 in 9.0 miles NE 6.9 mph - N/A   Clear
12:13 AM 32.0°F 30.2°F 93% 30.23 in 10.0 miles East 6.9 mph - N/A   Clear
12:58 AM 29.7°F 28.2°F 94% 30.27 in 10.0 miles ENE 4.6 mph - N/A   Clear
1:58 AM 28.2°F 27.5°F 97% 30.26 in 10.0 miles East 4.6 mph - N/A   Clear
2:58 AM 29.1°F 28.0°F 96% 30.23 in 10.0 miles ENE 5.8 mph - N/A   Clear
3:58 AM 28.4°F 27.7°F 97% 30.20 in 10.0 miles NE 5.8 mph - N/A   Clear
4:58 AM 27.5°F 27.0°F 98% 30.20 in 10.0 miles NE 4.6 mph - N/A   Clear
5:58 AM 26.8°F 26.2°F 98% 30.18 in 10.0 miles ENE 5.8 mph - N/A   Clear
6:07 AM 26.6°F 24.8°F 93% 30.11 in 10.0 miles ENE 5.8 mph - N/A   Clear
6:24 AM 26.6°F 26.6°F 100% 30.10 in 10.0 miles ENE 6.9 mph - N/A   Clear
6:58 AM 26.2°F 26.1°F 99% 30.17 in 10.0 miles ENE 5.8 mph - 0.00 in   Clear
7:58 AM 28.4°F 28.4°F 100% 30.17 in 10.0 miles ENE 4.6 mph - N/A   Clear
8:58 AM 33.8°F 31.8°F 92% 30.15 in 10.0 miles ESE 2.3 mph - N/A   Partly Cloudy
9:58 AM 40.3°F 34.3°F 79% 30.12 in 10.0 miles South 9.2 mph - N/A   Partly Cloudy
9:59 AM 41.0°F 33.8°F 76% 30.06 in 10.0 miles South 10.4 mph - N/A   Partly Cloudy
10:09 AM 41.0°F 33.8°F 76% 30.06 in 10.0 miles South 8.1 mph - N/A   Scattered Clouds
10:58 AM 42.6°F 35.6°F 76% 30.10 in 10.0 miles SSW 10.4 mph - 0.00 in   Overcast
11:14 AM 42.8°F 35.6°F 76% 30.04 in 10.0 miles SSW 10.4 mph - N/A   Overcast
11:24 AM 42.8°F 35.6°F 76% 30.03 in 10.0 miles SSW 11.5 mph - N/A   Overcast
11:29 AM 42.8°F 35.6°F 76% 30.03 in 10.0 miles SSW 11.5 mph - N/A   Overcast
11:38 AM 42.8°F 35.6°F 76% 30.03 in 10.0 miles SSW 13.8 mph - N/A   Overcast
11:41 AM 42.8°F 35.6°F 76% 30.03 in 10.0 miles SW 11.5 mph - N/A   Overcast
11:58 AM 42.1°F 35.8°F 78% 30.08 in 10.0 miles SW 9.2 mph - 0.00 in   Overcast
12:21 PM 42.8°F 35.6°F 76% 30.01 in 10.0 miles SSW 9.2 mph - N/A   Overcast
12:34 PM 42.8°F 35.6°F 76% 30.00 in 10.0 miles South 10.4 mph - N/A   Overcast
12:58 PM 41.9°F 36.3°F 81% 30.04 in 10.0 miles SSW 12.7 mph - 0.00 in   Overcast
1:08 PM 41.0°F 35.6°F 81% 29.97 in 10.0 miles SSW 12.7 mph - N/A Rain Light Rain
1:20 PM 41.0°F 37.4°F 87% 29.97 in 10.0 miles SSW 12.7 mph - N/A   Overcast
1:32 PM 41.0°F 37.4°F 87% 29.95 in 10.0 miles South 10.4 mph - N/A Rain Light Rain
1:53 PM 41.0°F 37.4°F 87% 29.96 in 10.0 miles SW 11.5 mph - N/A   Overcast
1:58 PM 41.0°F 37.4°F 87% 30.02 in 10.0 miles SW 11.5 mph - 0.00 in   Overcast
2:13 PM 41.0°F 37.4°F 87% 29.95 in 10.0 miles SSW 12.7 mph - N/A   Overcast
2:18 PM 41.0°F 37.4°F 87% 29.96 in 10.0 miles SW 11.5 mph - N/A   Overcast
2:21 PM 41.0°F 37.4°F 87% 29.96 in 10.0 miles SSW 16.1 mph - N/A   Overcast
2:39 PM 41.0°F 37.4°F 87% 29.94 in 10.0 miles SSW 11.5 mph - N/A   Overcast
2:58 PM 41.0°F 37.6°F 88% 30.01 in 10.0 miles SW 12.7 mph - 0.00 in   Overcast
3:21 PM 41.0°F 37.4°F 87% 29.93 in 10.0 miles SSW 9.2 mph - N/A   Overcast
3:30 PM 42.8°F 37.4°F 81% 29.93 in 10.0 miles SSW 10.4 mph - N/A   Overcast
3:35 PM 42.8°F 39.2°F 87% 29.93 in 10.0 miles SW 12.7 mph - N/A   Overcast
3:55 PM 41.0°F 37.4°F 87% 29.92 in 10.0 miles SSW 13.8 mph - N/A   Overcast
3:58 PM 41.5°F 37.6°F 86% 29.98 in 10.0 miles SW 12.7 mph - 0.00 in   Overcast
4:01 PM 41.0°F 37.4°F 87% 29.92 in 10.0 miles SW 12.7 mph - N/A   Overcast
4:58 PM 39.9°F 36.3°F 87% 29.99 in 10.0 miles SW 10.4 mph - 0.00 in   Clear
5:58 PM 37.4°F 34.7°F 90% 29.99 in 10.0 miles WSW 10.4 mph - N/A   Mostly Cloudy
6:13 PM 37.4°F 33.8°F 87% 29.91 in 10.0 miles WSW 10.4 mph - N/A   Mostly Cloudy
6:23 PM 35.6°F 33.8°F 93% 29.91 in 10.0 miles WSW 9.2 mph - N/A   Scattered Clouds
6:44 PM 33.8°F 32.0°F 93% 29.90 in 10.0 miles SW 9.2 mph - N/A   Partly Cloudy
6:58 PM 34.9°F 33.6°F 95% 29.96 in 10.0 miles SW 8.1 mph - 0.00 in   Partly Cloudy
6:59 PM 35.6°F 32.0°F 87% 29.89 in 10.0 miles SW 8.1 mph - N/A   Partly Cloudy
7:58 PM 34.3°F 30.2°F 85% 29.96 in 10.0 miles WSW 13.8 mph - 0.00 in   Scattered Clouds
8:02 PM 35.6°F 30.2°F 81% 29.89 in 10.0 miles WSW 15.0 mph - N/A   Mostly Cloudy
8:26 PM 35.6°F 30.2°F 81% 29.89 in 10.0 miles West 15.0 mph - N/A   Mostly Cloudy
8:45 PM 35.6°F 30.2°F 81% 29.89 in 10.0 miles WSW 13.8 mph - N/A   Mostly Cloudy
8:46 PM 33.8°F 30.2°F 87% 29.89 in 10.0 miles WSW 13.8 mph - N/A   Mostly Cloudy
8:58 PM 34.3°F 29.3°F 82% 29.97 in 10.0 miles West 16.1 mph - 0.00 in   Scattered Clouds
9:17 PM 33.8°F 30.2°F 87% 29.90 in 10.0 miles West 13.8 mph - N/A   Mostly Cloudy
9:21 PM 33.8°F 30.2°F 87% 29.90 in 10.0 miles West 13.8 mph - N/A   Mostly Cloudy
9:58 PM 33.4°F 29.7°F 86% 29.97 in 10.0 miles WSW 13.8 mph - 0.00 in   Overcast
10:58 PM 32.9°F 29.5°F 87% 29.97 in 10.0 miles WSW 13.8 mph - N/A   Mostly Cloudy
11:04 PM 32.0°F 30.2°F 93% 29.91 in 10.0 miles WSW 13.8 mph - N/A   Scattered Clouds
11:18 PM 32.0°F 28.4°F 87% 29.91 in 10.0 miles WSW 16.1 mph - N/A   Partly Cloudy
11:58 PM 33.1°F 28.9°F 85% 29.98 in 10.0 miles SW 9.2 mph - 0.00 in   Mostly Cloudy
Moon Phase
Feb. 16 Feb. 17 Feb. 25 Mar. 04 Mar. 11
Sunrise:06:53 AM (PST) Moon Rise:09:38 AM (PST)2/16
Sunset:05:16 PM (PST) Moon Set:No Moon Set/

Copyright © 2014 The Weather Underground, Inc.